| time (UTC) | temp C | wind direction | speed KPH | gust KPH | rain 1hr cm | rain 24hr cm | rain mn cm | humidity % | barometer mb |
| 20260505015112 | 32 | 251 | 0.0 | 1.6 | 0.00 | 0.00 | 0.00 | 25 | 1004.1 |
| 20260505014133 | 32 | 254 | 3.2 | 6.4 | 0.00 | 0.00 | 0.00 | 26 | 1004.2 |
| 20260505013112 | 32 | 0.0 | 0.0 | 0.00 | 0.00 | 0.00 | 27 | 1004.3 | |
| 20260505012113 | 32 | 50 | 3.2 | 9.7 | 0.00 | 0.00 | 0.00 | 28 | 1004.4 |
| 20260505011113 | 32 | 44 | 0.0 | 8.0 | 0.00 | 0.00 | 0.00 | 27 | 1004.5 |
| 20260505010112 | 32 | 166 | 3.2 | 6.4 | 0.00 | 0.00 | 0.00 | 27 | 1004.5 |
| 20260505005113 | 32 | 92 | 1.6 | 8.0 | 0.00 | 0.00 | 0.00 | 26 | 1004.6 |
| 20260505004113 | 32 | 335 | 0.0 | 1.6 | 0.00 | 0.00 | 0.00 | 27 | 1004.6 |
| 20260505003134 | 32 | 331 | 0.0 | 1.6 | 0.00 | 0.00 | 0.00 | 27 | 1004.6 |
| 20260505002113 | 32 | 47 | 1.6 | 8.0 | 0.00 | 0.00 | 0.00 | 28 | 1004.6 |
| 20260505001113 | 31 | 97 | 3.2 | 8.0 | 0.00 | 0.00 | 0.00 | 28 | 1004.7 |
| 20260505000113 | 31 | 47 | 6.4 | 16.1 | 0.00 | 0.00 | 0.00 | 28 | 1004.7 |
| 20260504235114 | 31 | 82 | 0.0 | 4.8 | 0.00 | 0.00 | 0.00 | 27 | 1004.7 |
| 20260504234114 | 31 | 278 | 4.8 | 11.3 | 0.00 | 0.00 | 0.00 | 28 | 1004.7 |
| 20260504233114 | 31 | 284 | 9.7 | 16.1 | 0.00 | 0.00 | 0.00 | 28 | 1004.8 |
| 20260504232114 | 31 | 304 | 4.8 | 14.5 | 0.00 | 0.00 | 0.00 | 28 | 1004.9 |
| 20260504231114 | 31 | 20 | 3.2 | 14.5 | 0.00 | 0.00 | 0.00 | 28 | 1005.0 |
| 20260504230114 | 31 | 215 | 6.4 | 12.9 | 0.00 | 0.00 | 0.00 | 28 | 1005.0 |
| 20260504225114 | 31 | 232 | 4.8 | 11.3 | 0.00 | 0.00 | 0.00 | 27 | 1005.1 |
| 20260504224115 | 30 | 272 | 8.0 | 14.5 | 0.00 | 0.00 | 0.00 | 27 | 1005.2 |
| 20260504223115 | 30 | 231 | 12.9 | 22.5 | 0.00 | 0.00 | 0.00 | 28 | 1005.3 |
| 20260504222135 | 31 | 267 | 11.3 | 24.1 | 0.00 | 0.00 | 0.00 | 28 | 1005.4 |
| 20260504221135 | 30 | 270 | 1.6 | 8.0 | 0.00 | 0.00 | 0.00 | 27 | 1005.6 |
| 20260504220135 | 30 | 309 | 4.8 | 17.7 | 0.00 | 0.00 | 0.00 | 28 | 1005.7 |
| 20260504215115 | 30 | 323 | 1.6 | 6.4 | 0.00 | 0.00 | 0.00 | 28 | 1005.8 |
| 20260504214115 | 30 | 289 | 3.2 | 16.1 | 0.00 | 0.00 | 0.00 | 28 | 1005.9 |
| 20260504213115 | 30 | 356 | 1.6 | 9.7 | 0.00 | 0.00 | 0.00 | 28 | 1006.1 |
| 20260504212116 | 30 | 63 | 3.2 | 11.3 | 0.00 | 0.00 | 0.00 | 29 | 1006.2 |
| 20260504211116 | 30 | 21 | 1.6 | 6.4 | 0.00 | 0.00 | 0.00 | 30 | 1006.3 |
| 20260504210115 | 29 | 59 | 6.4 | 16.1 | 0.00 | 0.00 | 0.00 | 31 | 1006.3 |
| 20260504205116 | 30 | 61 | 8.0 | 17.7 | 0.00 | 0.00 | 0.00 | 32 | 1006.5 |
| 20260504204116 | 30 | 65 | 6.4 | 25.7 | 0.00 | 0.00 | 0.00 | 31 | 1006.6 |
| 20260504203116 | 30 | 67 | 3.2 | 12.9 | 0.00 | 0.00 | 0.00 | 31 | 1006.8 |
| 20260504202116 | 30 | 171 | 3.2 | 11.3 | 0.00 | 0.00 | 0.00 | 32 | 1006.9 |
| 20260504201116 | 29 | 151 | 0.0 | 4.8 | 0.00 | 0.00 | 0.00 | 33 | 1007.0 |
| 20260504200117 | 30 | 343 | 1.6 | 6.4 | 0.00 | 0.00 | 0.00 | 33 | 1007.1 |
| 20260504195136 | 29 | 229 | 3.2 | 9.7 | 0.00 | 0.00 | 0.00 | 32 | 1007.2 |
| 20260504194116 | 29 | 74 | 4.8 | 12.9 | 0.00 | 0.00 | 0.00 | 33 | 1007.2 |
| 20260504193137 | 28 | 42 | 1.6 | 9.7 | 0.00 | 0.00 | 0.00 | 32 | 1007.3 |
| 20260504192118 | 28 | 92 | 1.6 | 8.0 | 0.00 | 0.00 | 0.00 | 33 | 1007.3 |
| 20260504191137 | 28 | 316 | 0.0 | 4.8 | 0.00 | 0.00 | 0.00 | 33 | 1007.4 |
| 20260504190018 | 28 | 63 | 3.2 | 11.3 | 0.00 | 0.00 | 0.00 | 33 | 1007.5 |
| 20260504185017 | 27 | 171 | 4.8 | 14.5 | 0.00 | 0.00 | 0.00 | 34 | 1007.6 |
| 20260504184117 | 27 | 285 | 6.4 | 16.1 | 0.00 | 0.00 | 0.00 | 34 | 1007.6 |
| 20260504183117 | 27 | 268 | 6.4 | 11.3 | 0.00 | 0.00 | 0.00 | 35 | 1007.7 |
| 20260504182117 | 27 | 267 | 4.8 | 11.3 | 0.00 | 0.00 | 0.00 | 36 | 1007.8 |
| 20260504181018 | 27 | 296 | 8.0 | 16.1 | 0.00 | 0.00 | 0.00 | 37 | 1007.9 |
| 20260504180018 | 26 | 284 | 3.2 | 9.7 | 0.00 | 0.00 | 0.00 | 39 | 1008.0 |
| 20260504175018 | 26 | 292 | 8.0 | 12.9 | 0.00 | 0.00 | 0.00 | 39 | 1007.9 |
| 20260504174018 | 25 | 289 | 3.2 | 9.7 | 0.00 | 0.00 | 0.00 | 40 | 1008.1 |
| 20260504173138 | 25 | 289 | 3.2 | 11.3 | 0.00 | 0.00 | 0.00 | 39 | 1008.1 |
| 20260504172018 | 24 | 295 | 6.4 | 12.9 | 0.00 | 0.00 | 0.00 | 41 | 1008.1 |
| 20260504171018 | 23 | 293 | 6.4 | 12.9 | 0.00 | 0.00 | 0.00 | 41 | 1008.1 |
| 20260504151020 | 18 | 256 | 1.6 | 6.4 | 0.00 | 0.00 | 0.00 | 57 | 1008.5 |
| 20260504141020 | 13 | 227 | 1.6 | 3.2 | 0.00 | 0.00 | 0.00 | 76 | 1008.3 |
| 20260504081024 | 12 | 136 | 0.0 | 3.2 | 0.00 | 0.00 | 0.00 | 76 | 1007.7 |
| 20260504045027 | 18 | 56 | 0.0 | 1.6 | 0.00 | 0.00 | 0.00 | 50 | 1007.6 |
| 20260504044107 | 18 | 255 | 3.2 | 6.4 | 0.00 | 0.00 | 0.00 | 49 | 1007.5 |
| 20260504043047 | 20 | 283 | 3.2 | 4.8 | 0.00 | 0.00 | 0.00 | 46 | 1007.6 |
| 20260504042027 | 20 | 139 | 0.0 | 4.8 | 0.00 | 0.00 | 0.00 | 43 | 1007.5 |
| 20260504041128 | 20 | 246 | 0.0 | 1.6 | 0.00 | 0.00 | 0.00 | 43 | 1007.5 |
| 20260504040028 | 21 | 0.0 | 0.0 | 0.00 | 0.00 | 0.00 | 45 | 1007.4 | |
| 20260504035028 | 21 | 236 | 0.0 | 3.2 | 0.00 | 0.00 | 0.00 | 42 | 1007.2 |
| 20260504034027 | 22 | 298 | 0.0 | 3.2 | 0.00 | 0.00 | 0.00 | 39 | 1007.1 |
| 20260504033028 | 22 | 35 | 0.0 | 1.6 | 0.00 | 0.00 | 0.00 | 40 | 1007.0 |
| 20260504032029 | 23 | 157 | 3.2 | 9.7 | 0.00 | 0.00 | 0.00 | 37 | 1006.9 |
| 20260504031028 | 24 | 143 | 1.6 | 8.0 | 0.00 | 0.00 | 0.00 | 38 | 1006.9 |
| 20260504030029 | 25 | 250 | 3.2 | 8.0 | 0.00 | 0.00 | 0.00 | 36 | 1006.8 |
| 20260504025028 | 26 | 194 | 0.0 | 3.2 | 0.00 | 0.00 | 0.00 | 36 | 1006.8 |
| 20260504024039 | 27 | 162 | 6.4 | 9.7 | 0.00 | 0.00 | 0.00 | 35 | 1006.8 |
| 20260504023029 | 28 | 171 | 1.6 | 8.0 | 0.00 | 0.00 | 0.00 | 35 | 1006.8 |
| 20260504022028 | 30 | 191 | 4.8 | 9.7 | 0.00 | 0.00 | 0.00 | 33 | 1006.9 |
| 20260504021029 | 30 | 177 | 3.2 | 8.0 | 0.00 | 0.00 | 0.00 | 30 | 1006.9 |
| 20260504020149 | 30 | 149 | 0.0 | 1.6 | 0.00 | 0.00 | 0.00 | 30 | 1007.0 |